Location: Demonte
(44.3148°N, 7.2945°E)
Time: 21:31:18
(UTC+02:00)

ISS - Visible Passes

Search period start: 21 September 2017 00:00
Search period end: 01 October 2017 00:00
Orbit: 401 x 407 km, 51.6° (Epoch: 22 September)

Date Brightness Start Highest point End Pass type
(mag) Time Alt. Az. Time Alt. Az. Time Alt. Az.
21 Sep -1.1 04:59:39 14° SE 04:59:39 14° SE 05:00:14 10° SE visible
21 Sep -1.6 06:32:22 11° WSW 06:32:54 11° SW 06:33:51 10° SSW visible
24 Sep -1.8 20:35:03 10° S 20:36:13 14° SSE 20:36:13 14° SSE visible
25 Sep -2.4 21:17:41 10° SW 21:19:29 30° SW 21:19:29 30° SW visible
26 Sep -3.1 20:25:40 10° SSW 20:28:38 34° SE 20:29:51 25° E visible
26 Sep -0.7 22:01:58 10° W 22:02:31 14° W 22:02:31 14° W visible
27 Sep -3.5 21:09:24 10° WSW 21:12:39 63° NNW 21:12:40 63° NNW visible
28 Sep -3.9 20:17:00 10° SW 20:20:15 77° SSE 20:22:40 17° ENE visible
28 Sep -0.9 21:54:06 10° WNW 21:55:19 18° WNW 21:55:19 18° WNW visible
29 Sep -2.6 21:01:23 10° W 21:04:27 36° NNW 21:05:10 31° N visible
30 Sep -3.2 20:08:44 10° WSW 20:11:57 53° NNW 20:14:55 12° NE visible
30 Sep -1.0 21:46:14 10° WNW 21:47:34 18° NW 21:47:34 18° NW visible
